Hourly Data Report for November 07, 2017

All times are specified in Local Standard Time (LST). Add 1 hour to adjust for Daylight Saving Time where and when it is observed.

GREENWOOD A
NOVA SCOTIA

44°59'00.000" N
64°55'00.000" W
28.00 m
8202000
71397
YZX

Download Data

Hourly Data (November 2017)
Hourly Data Report for November 7, 2017
Temp Definition
°C
Dew Point Temp Definition
°C
Rel Hum Definition
%
Wind Dir Definition
10's deg

Wind Spd Definition
km/h
Visibility Definition
km
Stn Press Definition
kPa
Hmdx Definition


Wind Chill Definition


Weather Definition


TIME
00:00 12.6 11.2 91 30 22 12.9 100.72     Rain
01:00 10.5 9.4 93 30 19 6.4 100.91     Rain,Fog
02:00 9.9 9.0 94 31 15 6.4 101.00     Rain,Fog
03:00 8.8 6.9 88 33 19 19.3 101.08     Rain
04:00 7.8 5.2 84 32 28 24.1 101.18     Mostly Cloudy
05:00 5.9 3.8 86 35 22 24.1 101.32     Cloudy
06:00 5.1 1.3 76 34 24 24.1 101.42     Cloudy
07:00 4.6 0.4 74 35 13 24.1 101.52     Cloudy
08:00 4.1 -0.7 71 1 13 24.1 101.65     Mostly Cloudy
09:00 4.3 -1.3 67 2 17 24.1 101.75     Mostly Cloudy
10:00 4.6 -1.2 66 34 17 24.1 101.80     Mostly Cloudy
11:00 5.0 -1.0 65 35 11 24.1 101.85     Mostly Cloudy
12:00 5.1 -0.3 68 35 9 24.1 101.80     Mostly Cloudy
13:00 5.5 -0.4 66 29 9 24.1 101.78     Cloudy
14:00 5.9 -0.7 63 31 13 24.1 101.79     Mostly Cloudy
15:00 5.5 -0.9 63 31 7 24.1 101.72     Mostly Cloudy
16:00 5.6 -0.5 65 31 9 24.1 101.76     Mostly Cloudy
17:00 5.4 -0.8 64 31 11 24.1 101.83     Mostly Cloudy
18:00 5.0 -1.3 64   0 24.1 101.87     Mostly Cloudy
19:00 5.1 -0.6 67 25 15 24.1 101.97     Mostly Cloudy
20:00 4.8 2.4 84 26 6 24.1 102.04     Mostly Cloudy
21:00 4.7 0.5 74 29 7 24.1 102.04     Cloudy
22:00 4.3 -0.5 71 32 9 24.1 102.06     Cloudy
23:00 4.2 -0.8 70 1 4 24.1 102.07     Cloudy

Notes on Data Quality.

Legend

  • E = Estimated
  • M = Missing
  • NA = Not Available
  • ‡ = Partner data that is not subject to review by the National Climate Archives
Date modified: